Weather History for Glenwood, MN

Change the Weather History Date:

Sunday, September 22, 2013

  Actual Average Record
Temperature  
Mean Temperature 60 °F -  
Max Temperature 77 °F 65 °F 85 °F (1958)
Min Temperature 44 °F 42 °F 25 °F (1974)
Degree Days  
Heating Degree Days 4    
Growing Degree Days 10 (Base 50)    
Moisture  
Dew Point 50 °F    
Average Humidity 72    
Maximum Humidity 93    
Minimum Humidity 44    
Precipitation  
Precipitation 0.00 in - - ()
Sea Level Pressure  
Sea Level Pressure 29.84 in    
Wind  
Wind Speed 12 mph (ESE)    
Max Wind Speed 22 mph    
Max Gust Speed 28 mph    
Visibility 10 miles    
Events      
Averages and records for this station are not official NWS values.
T = Trace of Precipitation, MM = Missing Value Source: NWS Daily Summary

Daily Weather History Graph

Daily Weather History Graph

Search for Another Location

Airport:

Trip Planner

Search our weather history database for the weather conditions in past years. The results will help you decide how hot, cold, wet, or windy it might be!

Date:

Astronomy

Sep. 22, 2013 Rise Set
Actual Time 7:08 AM CDT 7:18 PM CDT
Civil Twilight 6:38 AM CDT 7:47 PM CDT
Nautical Twilight 6:04 AM CDT 8:22 PM CDT
Astronomical Twilight 5:28 AM CDT 8:58 PM CDT
Moon 8:56 PM CDT (9/22) 10:41 AM CDT (9/22)
Length of Visible Light 13h 08m
Length of Day
12h 09m
Waning Gibbous, 88% of the Moon is Illuminated
Sep 22
Waning Gibbous
Sep 26
Last Quarter
Oct 4
New
Oct 11
First Quarter
Oct 18
Full

Hourly Weather History & Observations

Time (CDT) Temp. Windchill Dew Point Humidity Pressure Visibility Wind Dir Wind Speed Gust Speed Precip Events Conditions
12:13 AM 46.4 °F 42.4 °F 44.6 °F 93% 29.92 in 10.0 mi East 8.1 mph - N/A   Clear
12:33 AM 46.4 °F 42.4 °F 44.6 °F 93% 29.92 in 10.0 mi East 8.1 mph - N/A   Clear
12:53 AM 46.4 °F 42.4 °F 44.6 °F 93% 29.92 in 10.0 mi ESE 8.1 mph - N/A   Clear
1:13 AM 46.4 °F 42.9 °F 44.6 °F 93% 29.92 in 10.0 mi East 6.9 mph - N/A   Clear
1:33 AM 46.4 °F 42.4 °F 44.6 °F 93% 29.92 in 10.0 mi ESE 8.1 mph - N/A   Clear
1:54 AM 46.4 °F 42.4 °F 44.6 °F 93% 29.92 in 10.0 mi ESE 8.1 mph - N/A   Clear
2:13 AM 46.4 °F 42.4 °F 44.6 °F 93% 29.92 in 10.0 mi ESE 8.1 mph - N/A   Clear
2:33 AM 44.6 °F 40.7 °F 42.8 °F 93% 29.91 in 10.0 mi ESE 6.9 mph - N/A   Clear
2:53 AM 46.4 °F 42.4 °F 44.6 °F 93% 29.91 in 10.0 mi SE 8.1 mph - N/A   Clear
3:13 AM 46.4 °F 41.9 °F 44.6 °F 93% 29.91 in 10.0 mi SE 9.2 mph - N/A   Clear
3:33 AM 46.4 °F 41.9 °F 44.6 °F 93% 29.91 in 10.0 mi ESE 9.2 mph - N/A   Clear
3:53 AM 46.4 °F 41.5 °F 44.6 °F 93% 29.90 in 10.0 mi ESE 10.4 mph - N/A   Clear
4:14 AM 46.4 °F 41.1 °F 44.6 °F 93% 29.90 in 10.0 mi ESE 11.5 mph - N/A   Clear
4:33 AM 46.4 °F 41.5 °F 44.6 °F 93% 29.90 in 10.0 mi ESE 10.4 mph - N/A   Clear
4:53 AM 46.4 °F 41.1 °F 44.6 °F 93% 29.90 in 10.0 mi ESE 11.5 mph - N/A   Clear
5:13 AM 46.4 °F 41.1 °F 44.6 °F 93% 29.89 in 10.0 mi ESE 11.5 mph - N/A   Clear
5:33 AM 46.4 °F 41.5 °F 44.6 °F 93% 29.89 in 10.0 mi ESE 10.4 mph - N/A   Clear
5:54 AM 46.4 °F 41.5 °F 44.6 °F 93% 29.89 in 10.0 mi ESE 10.4 mph - N/A   Clear
6:13 AM 46.4 °F 41.1 °F 44.6 °F 93% 29.89 in 10.0 mi ESE 11.5 mph - N/A   Clear
6:33 AM 46.4 °F 40.7 °F 44.6 °F 93% 29.88 in 10.0 mi ESE 12.7 mph - N/A   Clear
6:53 AM 46.4 °F 40.7 °F 44.6 °F 93% 29.87 in 10.0 mi ESE 12.7 mph - N/A   Clear
7:13 AM 46.4 °F 40.4 °F 44.6 °F 93% 29.87 in 10.0 mi ESE 13.8 mph 18.4 mph N/A   Clear
7:34 AM 48.2 °F - 44.6 °F 87% 29.87 in 10.0 mi ESE 13.8 mph - N/A   Clear
7:53 AM 48.2 °F - 46.4 °F 93% 29.87 in 10.0 mi ESE 12.7 mph - N/A   Clear
8:13 AM 50.0 °F - 46.4 °F 87% 29.87 in 10.0 mi East 12.7 mph - N/A   Clear
8:33 AM 51.8 °F - 46.4 °F 82% 29.87 in 10.0 mi ESE 15.0 mph 23.0 mph N/A   Clear
8:53 AM 53.6 °F - 46.4 °F 77% 29.87 in 10.0 mi ESE 18.4 mph 21.9 mph N/A   Clear
9:14 AM 55.4 °F - 48.2 °F 77% 29.87 in 10.0 mi ESE 16.1 mph 23.0 mph N/A   Clear
9:33 AM 55.4 °F - 48.2 °F 77% 29.87 in 10.0 mi ESE 19.6 mph 26.5 mph N/A   Clear
9:53 AM 57.2 °F - 48.2 °F 72% 29.86 in 10.0 mi ESE 20.7 mph 24.2 mph N/A   Clear
10:14 AM 59.0 °F - 48.2 °F 67% 29.86 in 10.0 mi ESE 18.4 mph 24.2 mph N/A   Clear
10:33 AM 60.8 °F - 50.0 °F 68% 29.85 in 10.0 mi SE 18.4 mph 24.2 mph N/A   Clear
10:53 AM 62.6 °F - 50.0 °F 63% 29.85 in 10.0 mi SE 18.4 mph 27.6 mph N/A   Clear
11:13 AM 64.4 °F - 51.8 °F 64% 29.84 in 10.0 mi ESE 16.1 mph 27.6 mph N/A   Clear
11:33 AM 66.2 °F - 51.8 °F 60% 29.84 in 10.0 mi ESE 19.6 mph 24.2 mph N/A   Clear
11:54 AM 66.2 °F - 51.8 °F 60% 29.84 in 10.0 mi SE 17.3 mph 24.2 mph N/A   Clear
12:13 PM 68.0 °F - 51.8 °F 56% 29.83 in 10.0 mi SE 17.3 mph 24.2 mph N/A   Clear
12:33 PM 69.8 °F - 53.6 °F 56% 29.82 in 10.0 mi SE 18.4 mph 24.2 mph N/A   Clear
12:53 PM 71.6 °F - 53.6 °F 53% 29.82 in 10.0 mi SE 16.1 mph 25.3 mph N/A   Clear
1:13 PM 71.6 °F - 53.6 °F 53% 29.81 in 10.0 mi SE 19.6 mph 25.3 mph N/A   Clear
1:34 PM 71.6 °F - 53.6 °F 53% 29.81 in 10.0 mi SE 17.3 mph 26.5 mph N/A   Clear
1:53 PM 73.4 °F - 53.6 °F 50% 29.80 in 10.0 mi SE 18.4 mph 25.3 mph N/A   Clear
2:13 PM 75.2 °F - 53.6 °F 47% 29.80 in 10.0 mi SE 17.3 mph 25.3 mph N/A   Clear
2:33 PM 75.2 °F - 53.6 °F 47% 29.79 in 10.0 mi SE 18.4 mph 24.2 mph N/A   Clear
2:53 PM 75.2 °F - 53.6 °F 47% 29.79 in 10.0 mi SE 20.7 mph 26.5 mph N/A   Clear
3:14 PM 75.2 °F - 53.6 °F 47% 29.78 in 10.0 mi SE 21.9 mph 26.5 mph N/A   Clear
3:33 PM 77.0 °F - 53.6 °F 44% 29.78 in 10.0 mi SE 18.4 mph - N/A   Clear
3:53 PM 77.0 °F - 53.6 °F 44% 29.77 in 10.0 mi SE 18.4 mph 24.2 mph N/A   Clear
4:13 PM 77.0 °F - 53.6 °F 44% 29.77 in 10.0 mi SE 17.3 mph - N/A   Clear
4:33 PM 77.0 °F - 53.6 °F 44% 29.77 in 10.0 mi SE 19.6 mph 25.3 mph N/A   Clear
4:53 PM 77.0 °F - 53.6 °F 44% 29.76 in 10.0 mi SE 17.3 mph 25.3 mph N/A   Clear
5:13 PM 77.0 °F - 55.4 °F 47% 29.76 in 10.0 mi ESE 18.4 mph 23.0 mph N/A   Clear
5:33 PM 77.0 °F - 55.4 °F 47% 29.76 in 10.0 mi SE 18.4 mph 25.3 mph N/A   Clear
5:53 PM 75.2 °F - 55.4 °F 50% 29.76 in 10.0 mi SE 16.1 mph 21.9 mph N/A   Clear
6:13 PM 75.2 °F - 55.4 °F 50% 29.76 in 10.0 mi SE 15.0 mph 20.7 mph N/A   Clear
6:33 PM 73.4 °F - 55.4 °F 53% 29.77 in 10.0 mi SE 10.4 mph - N/A   Clear
6:53 PM 71.6 °F - 57.2 °F 60% 29.77 in 10.0 mi ESE 8.1 mph - N/A   Clear
7:13 PM 69.8 °F - 57.2 °F 64% 29.77 in 10.0 mi ESE 10.4 mph - N/A   Clear
7:33 PM 68.0 °F - 55.4 °F 64% 29.77 in 10.0 mi ESE 10.4 mph - N/A   Clear
7:53 PM 66.2 °F - 55.4 °F 68% 29.78 in 10.0 mi ESE 11.5 mph - N/A   Clear
8:13 PM 66.2 °F - 55.4 °F 68% 29.79 in 10.0 mi ESE 11.5 mph - N/A   Clear
8:33 PM 64.4 °F - 55.4 °F 73% 29.79 in 10.0 mi ESE 10.4 mph - N/A   Clear
8:53 PM 64.4 °F - 55.4 °F 73% 29.79 in 10.0 mi ESE 10.4 mph 16.1 mph N/A   Clear
9:13 PM 64.4 °F - 55.4 °F 73% 29.79 in 10.0 mi ESE 10.4 mph - N/A   Clear
9:33 PM 62.6 °F - 55.4 °F 77% 29.79 in 10.0 mi ESE 10.4 mph 16.1 mph N/A   Clear
9:54 PM 62.6 °F - 55.4 °F 77% 29.79 in 10.0 mi SE 11.5 mph - N/A   Clear
10:13 PM 62.6 °F - 55.4 °F 77% 29.79 in 10.0 mi SE 12.7 mph - N/A   Clear
10:33 PM 62.6 °F - 55.4 °F 77% 29.79 in 10.0 mi SE 12.7 mph - N/A   Clear
10:53 PM 62.6 °F - 55.4 °F 77% 29.79 in 10.0 mi SE 13.8 mph 20.7 mph N/A   Clear
11:13 PM 64.4 °F - 55.4 °F 73% 29.79 in 10.0 mi SE 13.8 mph - N/A   Clear
11:34 PM 62.6 °F - 55.4 °F 77% 29.80 in 10.0 mi SE 12.7 mph - N/A   Clear
11:53 PM 62.6 °F - 55.4 °F 77% 29.80 in 10.0 mi SSE 11.5 mph - N/A   Clear